Simultaneous Nadir Overpasses (SNOs) Predictions

Prediction of SNOs between GOES-14 and AQUA Satellite Orbit:

Table of predicted SNOs for the next 14.0 days since TLE Epoch: 12/31/2021
Index Date Time (GOES-14) GOES-14 Lat,Lon AQUA Lat,Lon Distance(km) Time Diff (sec)
1 12/31/2021 20:49:07 0.01,-104.22 -0.87,-108.44 480.22 80
2 01/02/2022 08:15:32 0.01,-104.55 -0.87,-100.30 483.09 80
3 01/02/2022 20:36:56 0.00,-104.22 -0.26,-105.48 143.26 80
4 01/04/2022 20:27:25 -0.00,-104.23 0.36,-102.52 193.83 80
5 01/05/2022 08:46:02 -0.01,-104.56 0.65,-107.69 355.95 80
6 01/07/2022 08:35:17 -0.01,-104.57 0.02,-104.74 18.28 6
7 01/09/2022 08:24:20 -0.01,-104.59 -0.62,-101.78 319.94 80
8 01/09/2022 20:43:03 0.02,-104.25 -0.55,-106.95 306.54 80
9 01/11/2022 20:33:31 0.01,-104.27 0.04,-103.98 32.14 80
10 01/13/2022 20:21:20 0.01,-104.28 0.71,-101.03 370.47 80
11 01/14/2022 08:39:57 -0.01,-104.62 0.31,-106.20 178.88 80
